User: anonymous   Login
Location: SAPM � Hemmingford
(45.0500°N, 73.5833°W)
Time: 09:14:54
(UTC-04:00)
Language:

Cosmos 1674 Rocket - Orbit

View from above orbital plane
View from above orbital plane
View from above satellite
View from above satellite

Ground track
Ground track

The orbit data is extracted from the following two-line orbital elements,

1 15945U 85069B   16237.52154532  .00000092  00000-0  81377-5 0  9990
2 15945  82.5259  50.8346 0019832 176.7539 183.3809 14.83874008677032
Epoch (UTC): 24 August 2016 12:31:01
Eccentricity: 0.0019832
inclination: 82.5259°
perigee height: 603 km
apogee height: 631 km
right ascension of ascending node: 50.8346°
argument of perigee: 176.7539°
revolutions per day: 14.83874008
mean anomaly at epoch: 183.3809°
orbit number at epoch: 67703

The dashed part of the orbit path shows where the satellite is in the earth's shadow,  

DLR